CZ-6A DEB

Satellite information

Favourite Embed

Satellite Type and Status

DEBRISIN ORBIT

Key statistics

Satellite CZ-6A DEB at a glance.

Uptime

1078

Days in orbit

Revolutions

≈ 14.6

Per day

Orbit

SSO

Sun Synchronous Orbit

Inclination

98.6

Latest

Satellite identification and parameters

Extended collection of information and parameters for CZ-6A DEB.

Object identification

Identified? True

Debris? True

Object name: CZ-6A DEB

International designator: 2022-151WH

Object number (NORAD): 55216

Object ID (CCSDS): 55216

Country: PEOPLES REPUBLIC OF CHINA (PRC)

Current information (Y/N): Y

RCS size: SMALL

Orbital parameters

Period: 98.696 minutes

Inclination: 98.6219 deg

SMA: 7074.455 km

Apoapsis: 752.826 km

Periapsis: 639.814 km

RAAN: 336.4837 deg

Eccentricy: 0.0079873

Argument of periapsis: 317.8785 deg

Mean anomaly: 41.6292 deg

Mean motion: 14.59026745 rev/day

Mean motion (dot): 0.00011814 rev/day2

B* drag term: 0.0024131 1/REarth

Two-line elements (TLE)

Creation date: Oct. 23, 2025, 10:16 p.m.

Reference frame: TEME

Reference center: EARTH

Epoch: Oct. 23, 2025, 3:29 p.m. UTC

TLE line 0: 0 CZ-6A DEB

TLE line 1: 1 55216U 22151WH 25296.64527118 .00011814 00000-0 24131-2 0 9996

TLE line 2: 2 55216 98.6219 336.4837 0079873 317.8785 41.6292 14.59026745149846

Live tracking on map

Real-time ground track for satellite CZ-6A DEB.

In-orbit conjunctions

A list of the most updated potential collisions computed for object CZ-6A DEB.

Target Orbit TCA Probability of collision Miss distance Type
COSMOS 2251 DEB LEO 2024-12-05 23:13:48 0.0003869272 120.0 (m) DEBRIS
THOR BURNER 2A R/B SSO 2024-10-14 06:30:57 0.0001819322 415.0 (m) ROCKET BODY

Associated space launch

Chinese satellite reported for atmospheric/ocean/environmental/spatial parameter research purposes, details TBD.

CZ-6A DEB was lifted into orbit during the mission ‘Long March 6A | Yunhai 3’, on board a Long March 6A space rocket.

The launch took place on Nov. 11, 2022, 10:52 p.m. from Launch Complex 9A.

For more information about the launch, click the button.

Launch to space Long March 6A | Yunhai 3
Long March 6A | Yunhai 3

Agency: N/A

Status: Launch Successful

Launch date: Nov. 11, 2022, 10:52 p.m. UTC

Rocket: Long March 6A

Launch pad: Launch Complex 9A

Location: Taiyuan Satellite Launch Center, People's Republic of China

...

Latest news about this satellite

There are no fresh news available about this satellite. Check back as we update our databases every day.


Newsletter sign-up

Weekly statistics, charts and insights to help you stay on top of the space industry.